Lapse_Rate
3.9 3.8 3.8 3.8 3.8 4.0 4.1 4.3 4.2 4.1 4.2 4.1 4.0 4.1 4.2 4.4 4.6 4.6 4.5 4.7 4.9 4.9 5.0 5.1 5.2 5.1 5.1
4.1 4.1 4.0 4.0 4.1 4.3 4.5 4.7 4.6 4.7 4.6 4.4 4.3 4.2 4.2 4.4 4.7 4.7 4.6 4.8 5.0 5.2 5.3 5.2 5.2 5.3 5.3
4.5 4.7 4.6 4.6 4.7 4.7 4.7 4.7 4.6 4.8 4.8 4.7 4.4 4.4 4.4 4.5 4.7 4.8 4.9 5.0 5.3 5.6 5.7 5.6 5.6 5.4 5.3
5.1 5.1 5.1 5.0 5.0 5.2 5.3 5.1 5.0 4.9 4.8 4.9 5.0 4.9 4.9 4.9 4.8 4.9 5.0 5.3 5.7 5.8 5.9 5.9 5.9 5.9 5.8
5.9 5.7 5.6 5.4 5.3 5.3 5.5 5.4 5.4 5.4 5.3 5.2 5.1 5.1 5.1 5.2 5.2 5.1 5.2 5.4 5.5 5.8 6.0 6.1 6.2 6.4 6.3
6.3 6.2 5.7 5.5 5.4 5.5 5.5 5.4 5.6 5.5 5.5 5.3 5.0 4.8 4.8 5.1 5.3 5.5 5.6 5.5 5.5 5.7 5.9 6.0 6.2 6.5 6.5
6.5 6.2 5.9 5.6 5.6 5.7 5.6 5.6 5.5 5.4 5.4 5.6 5.1 5.0 4.9 5.2 5.2 5.3 5.5 5.7 5.9 6.1 6.2 6.2 6.1 5.9 5.8
6.7 6.5 6.1 5.9 5.6 5.6 5.5 5.5 5.5 5.4 5.1 5.4 5.4 5.3 5.3 5.3 5.3 5.5 5.6 5.8 5.9 5.9 5.8 5.8 5.9 5.9 6.0
6.7 6.7 6.1 5.8 5.7 5.5 5.4 5.4 5.6 5.5 5.4 5.0 5.4 5.5 5.8 5.8 5.7 6.1 6.0 5.9 6.1 6.3 6.3 6.4 6.4 6.4 6.4
6.6 6.6 6.0 5.6 5.4 5.3 5.4 5.4 5.4 5.6 5.6 4.8 5.1 5.5 6.4 6.6 6.2 6.1 5.9 6.0 6.2 6.3 6.2 6.1 6.3 6.4 6.5
6.7 6.4 5.6 5.3 5.2 5.1 5.3 5.3 5.2 5.4 5.2 4.8 5.6 5.6 5.8 6.8 7.0 6.4 6.1 6.1 6.2 6.2 6.2 6.3 6.3 6.2 6.3
6.3 6.2 5.7 5.4 5.3 5.1 5.1 4.7 5.0 5.2 5.0 4.7 5.7 5.8 6.0 6.6 6.9 6.8 6.5 6.6 6.6 6.5 6.4 6.3 6.2 6.2 6.3
6.1 5.9 5.5 5.3 5.2 5.1 4.8 4.6 4.8 5.2 5.2 5.1 5.3 5.7 6.1 6.6 6.9 6.8 6.8 6.9 6.8 6.7 6.6 6.4 6.4 6.3 6.3
5.7 5.5 5.2 5.2 5.1 4.9 4.7 4.6 4.9 5.3 4.9 5.0 5.4 5.8 6.2 6.5 6.6 6.8 6.8 6.8 6.8 6.6 6.3 6.4 6.4 6.3 6.3
5.5 5.3 5.2 5.0 5.0 4.7 4.8 4.8 5.1 5.4 5.4 5.1 5.2 5.8 6.1 6.3 6.4 6.5 6.6 6.6 6.5 6.3 6.3 6.5 6.4 6.3 6.2
5.2 5.0 5.0 4.9 5.0 4.8 4.9 4.9 5.1 5.5 5.7 5.6 5.6 5.6 5.7 5.8 5.8 6.2 6.5 6.5 6.3 6.1 6.1 6.1 6.4 6.2 5.9
5.0 4.9 4.8 5.0 4.9 5.0 5.0 5.0 5.3 5.6 5.9 5.9 5.9 5.7 5.7 6.1 6.4 6.1 6.4 6.4 6.2 6.3 6.0 6.1 6.2 6.3 5.6
Wind_Speed
3 2 3 4 7 9 11 10 10 10 9 12 12 14 16 13 10 10 13 15 12 12 12 11 9 10 11
3 3 4 3 4 5 6 8 10 8 12 15 17 17 13 9 11 16 17 15 13 13 12 11 12 11 11
5 2 3 2 3 3 4 5 8 11 14 17 14 9 11 11 16 14 14 15 15 14 15 15 14 12 15
4 3 3 3 3 3 3 2 3 8 13 13 9 8 13 15 15 14 13 13 14 15 18 16 12 17 19
4 2 3 2 3 2 3 4 3 4 3 2 3 7 12 13 14 14 14 13 14 14 15 15 17 18 17
4 6 6 4 3 3 3 2 3 3 2 3 5 5 8 12 15 14 14 15 16 17 16 18 18 18 16
9 8 5 5 4 3 4 5 6 5 3 7 3 6 8 12 16 16 18 19 17 14 13 13 14 16 19
7 8 7 5 6 5 7 6 7 6 4 7 3 5 4 10 18 21 15 13 11 10 13 19 19 18 19
21 19 18 18 16 5 6 6 6 5 4 3 2 3 3 7 11 11 9 9 12 17 21 21 19 20 18
5 10 16 12 17 7 4 7 5 5 2 3 2 1 3 2 2 7 9 17 20 22 22 21 21 14 8
6 6 6 5 5 6 7 6 5 7 4 2 2 2 3 5 4 4 5 9 11 16 21 23 23 20 8
5 5 6 6 6 6 8 8 11 9 7 5 3 3 3 8 9 5 5 5 7 8 9 18 23 24 24
6 6 5 5 6 3 5 9 9 9 12 9 5 6 4 8 10 9 10 5 5 7 8 8 8 7 9
6 6 3 3 4 4 3 4 4 5 8 13 10 7 8 10 10 10 10 7 4 6 7 8 8 13 10
5 5 6 6 5 4 4 4 6 6 6 3 9 10 8 11 10 12 12 11 10 10 9 11 9 10 11
6 6 6 5 5 3 3 5 7 6 6 4 2 1 5 9 21 13 11 10 10 10 10 11 12 10 10
6 6 5 5 6 3 4 4 5 7 7 6 3 4 9 11 6 18 10 9 9 8 9 11 13 12 10
Wind_Direction
246 274 290 290 308 320 316 312 316 307 293 306 310 311 314 305 308 308 315 313 313 312 307 305 305 320 325
245 252 238 254 269 298 293 295 307 298 298 300 299 300 295 292 315 309 306 303 308 306 302 302 303 301 311
268 244 266 271 293 285 282 285 290 285 296 300 299 291 294 299 308 301 303 301 304 301 307 299 296 307 307
253 254 241 262 260 276 289 259 279 281 284 290 279 300 304 301 302 300 293 290 289 293 300 289 299 304 303
250 250 246 234 229 242 274 284 280 245 258 263 253 280 280 285 289 290 285 281 288 291 291 293 295 296 291
230 240 241 221 219 237 257 288 301 229 208 242 242 255 254 258 272 275 277 282 287 288 287 289 287 286 294
229 226 226 211 204 232 235 238 254 259 232 276 218 256 248 257 275 274 280 280 276 270 273 283 289 290 287
211 226 220 213 209 233 250 254 258 248 203 275 237 251 254 251 270 286 282 271 264 271 288 289 284 284 284
251 249 251 255 250 236 246 249 265 263 191 243 235 260 241 269 272 279 278 274 276 287 292 289 286 288 293
244 255 256 255 261 255 232 257 265 293 207 188 213 233 306 244 279 268 273 282 280 283 282 281 282 286 279
228 230 222 226 239 236 225 229 242 247 213 173 210 196 222 286 252 244 241 262 266 266 271 276 279 276 269
221 227 224 225 219 227 228 222 229 238 242 223 229 209 220 273 276 273 264 246 246 260 263 268 274 274 270
234 240 220 222 219 209 226 234 239 239 246 229 224 244 217 262 274 276 286 278 261 262 265 259 259 259 267
231 249 217 180 211 207 206 225 240 255 233 235 232 229 257 260 265 271 270 267 260 253 256 256 254 252 252
228 231 240 233 226 207 216 211 237 262 265 237 239 238 238 247 262 265 267 265 264 264 261 263 257 252 253
222 229 233 225 220 200 193 217 251 257 259 252 221 280 263 253 241 257 262 262 263 260 258 265 269 256 251
217 221 221 211 245 205 215 218 250 261 258 257 212 233 270 272 260 247 249 257 264 257 248 252 266 269 261